Regional Weather Roundup
Issued by NWS

Home | Current Version | Previous Version | Text Only | Print | Product List | Glossary On
Versions: 1 2 3 4 5 6 7 8 9 10 11 12 13 14 15 16 17 18 19 20 21 22 23 24 25 26 27 28 29 30 31 32 33 34 35 36 37 38 39 40 41 42 43 44 45 46 47 48 49 50
000
ASUS43 KMKX 312300
RWRWI

WISCONSIN REGIONAL WEATHER ROUNDUP
NATIONAL WEATHER SERVICE MILWAUKEE/SULLIVAN WI
600 PM CDT TUE MAY 31 2016

NOTE: "FAIR" INDICATES FEW OR NO CLOUDS BELOW 12,000 FEET WITH NO
SIGNIFICANT WEATHER AND/OR OBSTRUCTIONS TO VISIBILITY.

WIZ001-002-006>008-014>016-023>028-010000-
NORTHWEST WISCONSIN

CITY           SKY/WX    TMP DP  RH WIND       PRES   REMARKS
SUPERIOR ARPT  CLOUDY    43  41  95 NE14G20   29.92R
ASHLAND        LGT RAIN  48  46  93 VRB5      29.92R
HAYWARD        TSTM      66  63  90 SE5       29.86F
SIREN          CLOUDY    69  60  72 SW3       29.83F
CUMBERLAND     LGT RAIN  66  63  88 S6        29.85R
RICE LAKE      LGT RAIN  64  61  88 SE5       29.87R
CHETEK         RAIN      63  63  97 SE7       29.86S
LADYSMITH      TSTM      60  58  92 E13       29.90S
EAU CLAIRE     LGT RAIN  63  61  93 SE10      29.88R
MENOMONIE      RAIN      64  64  99 SE3       29.86F
NEW RICHMOND   CLOUDY    67  61  80 SW8       29.84F
OSCEOLA        CLOUDY    69  62  79 S8        29.85F
$$

WIZ003>005-009-010-017-018-010000-
NORTH CENTRAL WISCONSIN

CITY           SKY/WX    TMP DP  RH WIND       PRES   REMARKS
MANITOWISH WTR CLOUDY    68  56  64 S13G22    29.91S
ARBOR VITAE    PTSUNNY   72  58  62 S12G24    29.92F
WOODRUFF       PTSUNNY   72  58  62 S12G24    29.92F
RHINELANDER    CLOUDY    67  54  63 SE12G17   29.94S
EAGLE RIVER      N/A     67  50  54 S8G22     29.94S
LAND O LAKES     N/A    N/A N/A N/A MISG        N/A
PHILLIPS       CLOUDY    69  59  69 SE15      29.88F
TOMAHAWK       CLOUDY    67  56  68 SE7G16    29.93R
MEDFORD        CLOUDY    66  58  73 SE10G20   29.91R
MERRILL        CLOUDY    65  58  77 SE9       29.94S
$$

WIZ029-030-035-036-043>047-010000-
CENTRAL WISCONSIN

CITY           SKY/WX    TMP DP  RH WIND       PRES   REMARKS
WAUSAU         CLOUDY    71  58  63 SE9       29.91F
MOSINEE        MOSUNNY   68  61  77 SE8G17    29.92F
MARSHFIELD     CLOUDY    70  59  68 S15       29.90S
STEVENS POINT  PTSUNNY   70  58  65 SE12G20   29.92F
WAUPACA        CLOUDY    71  63  74 SE6       29.93F
WAUTOMA        PTSUNNY  N/A N/A N/A SE10      29.93F
WISC RAPIDS    CLOUDY    71  59  65 SE10      29.92S
CAMP DOUGLAS   NOT AVBL
$$

WIZ011>013-019>022-031-037>040-048>050-010000-
NORTHEAST WISCONSIN

CITY           SKY/WX    TMP DP  RH WIND       PRES   REMARKS
ANTIGO         CLOUDY    63  54  73 SE16      29.95F
SHAWANO        CLOUDY    69  56  65 SE7       29.95F
OCONTO         CLOUDY    64  53  68 E5        29.98F
STURGEON BAY   CLOUDY    66  52  59 E8        29.99F
GREEN BAY      CLOUDY    69  57  65 SE7       29.96F
MANITOWOC      NOT AVBL
APPLETON       PTSUNNY   66  57  72 SE9       29.94F
CLINTONVILLE   PTSUNNY   68  55  64 SE10G17   29.93F
OSHKOSH        CLOUDY    67  59  75 SE14      29.94F
$$

WIZ032>034-041-042-053>061-010000-
SOUTHWEST WISCONSIN

CITY           SKY/WX    TMP DP  RH WIND       PRES   REMARKS
LA CROSSE      RAIN      65  63  93 E5        29.89S FOG
SPARTA         CLOUDY    72  61  67 S12       29.89R
VIROQUA        CLOUDY    71  61  70 SE13G20   29.89F
BOSCOBEL       NOT AVBL
PRAIRIE DU CHI PTSUNNY   74  62  65 SE9       29.86F
PLATTEVILLE    CLOUDY    70  65  83 SE13      29.91F
$$

WIZ056-057-062-063-064-067-068-010000-
SOUTH CENTRAL WISCONSIN

CITY           SKY/WX    TMP DP  RH WIND       PRES   REMARKS
REEDSBURG      CLOUDY    70  61  73 S6        29.91F
BARABOO/DELLS  CLOUDY    69  58  67 S20       29.92S
LONE ROCK      NOT AVBL
MINERAL POINT  CLOUDY    70  63  78 SE14      29.92F
MADISON        PTSUNNY   71  60  68 SE13      29.93F
MIDDLETON      MOSUNNY   72  61  67 S13G18    29.94S
WATERTOWN      CLOUDY    66  65  96 SE10G18   29.95F
MONROE         CLOUDY    70  61  73 SE9G18    29.94F
JANESVILLE     PTSUNNY   70  63  78 SE14G20   29.94F
$$

WIZ051-052-058>065-066-070>072-010000-
SOUTHEAST WISCONSIN

CITY           SKY/WX    TMP DP  RH WIND       PRES   REMARKS
MILWAUKEE      LGT RAIN  69  60  73 SW7       29.99F
WAUKESHA       PTSUNNY   63  61  94 S6        30.00F
MILWAUKEE/TIMM MOSUNNY   66  59  77 SW5       30.01F
RACINE         LGT RAIN  68  61  78 S3        30.02F
BURLINGTON     DRIZZLE   64  62  94 E6        29.99F
KENOSHA        LGT RAIN  66  62  87 SE6       30.01F
FOND DU LAC    CLOUDY    67  60  78 SE13      29.95F
SHEBOYGAN      CLOUDY    63  53  70 E3        29.99F
WEST BEND      RAIN      64  61  88 S9        30.00F
JUNEAU         DRIZZLE   65  61  85 SE16      29.97F
$$

LSZ147-162-010000-
LAKE SUPERIOR

STATION/POSITION TIME  TEMP    WIND        PRES    WAVE
                       AIR SEA DIR/SP/G            HT/PER
                 (UTC) (F)     (DEG/KT/KT) (MB)    (FT/S)
W MID LAKE BUOY  2050   41 38   40/ 16/ 19 1014.8F   3/ 4
DEVILS ISLAND    2200   43      70/ 18/ 21 1013.1R
SAXON HARBOR     2240          190/  4/ 15 1012.9R
$$

LMZ867-665-643>646-010000-
LAKE MICHIGAN

STATION/POSITION TIME  TEMP    WIND        PRES    WAVE
                       AIR SEA DIR/SP/G            HT/PER
                 (UTC) (F)     (DEG/KT/KT) (MB)    (FT/S)
CHAMBERS ISLAND  2240   61      30/  5/  9 1015.9F
N MID LAKE BUOY  2150   52 49   50/ 10/ 10 1016.3F   1/ 3
NORTHPORT PIER   2200   60      80/  4/  8 1016.6F
SISTER BAY       2120   67     150/  9/ 13   N/A
ALGOMA LAKESHORE 2202           70/ 10/ 12   N/A
KEWAUNEE LAKESHO 2200                      1015.7F
SHEBOYGAN LAKESH 2200   52     360/  8/  8 1016.6F
PORT WASHINGTON  2200   53      40/  8/ 10 1016.6F
S MID LAKE BUOY  2150   59 56  340/ 14/ 17 1015.1R   0
KENOSHA   LAKESH 2200   70     280/ 11/ 17 1016.3R
$$

TC  - TEMPERATURE IN CELSIUS
VSB - VISIBILITY IN STATUTE MILES
WCI - WIND CHILL INDEX
HX  - HEAT INDEX




USA.gov is the U.S. government's official web portal to all federal, state and local government web resources and services.